Location: Go�ngahuizen
(53.0821°N, 5.8849°E)
Time: 11:00:20
(UTC+00:00)

ATLAS 5 CENTAUR R/B - Pass Details

Date: 09 April 2020
Orbit: 543 x 1116 km, 63.4° (Epoch: 01 May)

Event Time Altitude Azimuth Distance (km) Brightness Sun altitude
Rises 19:59:38 0° 224° (SW) 2,757 5.0 -13.5°
Reaches altitude 10° 20:01:44 10° 224° (SW) 1,905 4.2 -13.8°
Maximum altitude 20:06:00 87° 138° (SE) 642 1.5 -14.3°
Drops below altitude 10° 20:10:55 10° 48° (NE) 2,189 4.2 -14.9°
Sets 20:13:29 0° 48° (NE) 3,208 5.1 -15.2°
